FW8345 Weather Reports


time (UTC)temp
C
wind
direction
speed
KPH
gust
KPH
rain 1hr
cm
rain 24hr
cm
rain mn
cm
humidity
%
barometer
mb
20260506032037 6 58 1.6 8.0 0.00 0.00 0.00 81 1015.7
20260506031556 6 65 3.2 12.9 0.00 0.00 0.00 81 1015.8
20260506031039 6 32 4.8 12.9 0.00 0.00 0.00 80 1015.8
20260506030537 6 46 3.2 12.9 0.00 0.00 0.00 80 1015.8
20260506030046 6 53 4.8 12.9 0.00 0.00 0.00 80 1015.8
20260506025537 6 38 3.2 12.9 0.00 0.00 0.00 80 1015.8
20260506025037 6 63 4.8 12.9 0.00 0.00 0.00 80 1015.8
20260506024552 6 52 6.4 12.9 0.00 0.00 0.00 80 1015.8
20260506024038 6 77 3.2 12.9 0.00 0.00 0.00 80 1015.8
20260506023538 6 78 4.8 11.3 0.00 0.00 0.00 80 1015.8
20260506023047 6 87 4.8 8.0 0.00 0.00 0.00 80 1015.7
20260506022537 6 67 3.2 9.7 0.00 0.00 0.00 79 1015.8
20260506022037 6 80 3.2 9.7 0.00 0.00 0.00 79 1015.8
20260506021551 6 100 3.2 9.7 0.00 0.00 0.00 79 1015.8
20260506021036 6 127 4.8 11.3 0.00 0.00 0.00 79 1015.8
20260506020537 6 63 3.2 12.9 0.00 0.00 0.00 78 1015.8
20260506020055 6 71 4.8 14.5 0.00 0.00 0.00 78 1015.8
20260506015538 6 74 3.2 14.5 0.00 0.00 0.00 78 1015.8
20260506015038 6 73 6.4 14.5 0.00 0.00 0.00 77 1015.9
20260506014550 6 52 8.0 17.7 0.00 0.00 0.00 77 1015.9
20260506014037 6 60 9.7 17.7 0.00 0.00 0.00 77 1016.0
20260506013537 6 67 8.0 17.7 0.00 0.00 0.00 77 1016.0
20260506013048 6 80 8.0 17.7 0.00 0.00 0.00 78 1015.9
20260506012538 6 50 4.8 14.5 0.00 0.00 0.00 78 1015.9
20260506012038 6 46 3.2 11.3 0.00 0.00 0.00 77 1015.9
20260506011546 6 28 4.8 12.9 0.00 0.00 0.00 77 1016.0
20260506011037 6 80 4.8 12.9 0.00 0.00 0.00 77 1016.1
20260506010537 6 81 4.8 12.9 0.00 0.00 0.00 77 1016.0
20260506010047 6 76 8.0 17.7 0.00 0.00 0.00 76 1016.1
20260506005537 6 59 6.4 17.7 0.00 0.00 0.00 78 1016.1
20260506005037 6 69 8.0 16.1 0.00 0.00 0.00 79 1016.0
20260506004549 6 65 6.4 14.5 0.00 0.00 0.00 79 1016.0
20260506004037 6 49 6.4 14.5 0.00 0.00 0.00 80 1016.0
20260506003538 7 76 4.8 14.5 0.00 0.00 0.00 80 1016.1
20260506003046 7 70 4.8 16.1 0.00 0.00 0.00 79 1016.1
20260506002539 7 76 8.0 16.1 0.00 0.00 0.00 79 1016.0
20260506002038 7 81 8.0 16.1 0.00 0.00 0.00 80 1016.2
20260506001543 7 76 8.0 16.1 0.00 0.00 0.00 80 1016.1
20260506001039 7 84 9.7 16.1 0.00 0.00 0.00 80 1016.1
20260506000539 7 78 6.4 17.7 0.00 0.00 0.00 81 1016.1
20260506000047 7 66 8.0 17.7 0.00 0.00 0.00 81 1016.1
20260505235539 7 89 4.8 12.9 0.00 0.00 0.00 82 1016.1
20260505235037 7 61 4.8 12.9 0.00 0.00 0.00 81 1016.2
20260505234556 7 78 6.4 16.1 0.00 0.00 0.00 81 1016.1
20260505234037 7 32 4.8 19.3 0.00 0.00 0.00 81 1016.2
20260505233538 7 82 8.0 19.3 0.00 0.00 0.00 81 1016.1
20260505233053 7 76 8.0 17.7 0.00 0.00 0.00 81 1016.1
20260505232538 7 67 8.0 20.9 0.00 0.00 0.00 81 1016.2
20260505232037 7 74 11.3 20.9 0.00 0.00 0.00 81 1016.2
20260505231554 7 86 9.7 19.3 0.00 0.00 0.00 81 1016.1
20260505231038 7 87 9.7 19.3 0.00 0.00 0.00 80 1016.3
20260505230538 7 78 8.0 19.3 0.00 0.00 0.00 80 1016.1
20260505230048 7 59 9.7 22.5 0.00 0.00 0.00 80 1016.2
20260505225538 7 73 9.7 22.5 0.00 0.00 0.00 80 1016.2
20260505225038 7 55 9.7 20.9 0.00 0.00 0.00 80 1016.2
20260505224547 7 76 8.0 20.9 0.00 0.00 0.00 79 1016.1
20260505224037 7 88 9.7 19.3 0.00 0.00 0.00 79 1016.1
20260505223537 7 19 8.0 25.7 0.00 0.00 0.00 80 1016.1
20260505223052 8 86 8.0 25.7 0.00 0.00 0.00 80 1016.0
20260505222534 8 44 9.7 19.3 0.00 0.00 0.00 79 1016.0
20260505222037 8 46 9.7 19.3 0.00 0.00 0.00 79 1015.9
20260505221549 8 78 11.3 19.3 0.00 0.00 0.00 77 1016.0
20260505221037 8 84 9.7 19.3 0.00 0.00 0.00 77 1015.9
20260505220539 8 94 9.7 20.9 0.00 0.00 0.00 77 1016.0
20260505220046 8 82 11.3 20.9 0.00 0.00 0.00 77 1016.0
20260505215538 8 80 9.7 19.3 0.00 0.00 0.00 76 1016.1
20260505215037 8 62 11.3 24.1 0.00 0.00 0.00 76 1016.0
20260505214554 8 98 12.9 29.0 0.00 0.00 0.00 76 1016.0
20260505214038 8 88 17.7 29.0 0.00 0.00 0.00 77 1016.0
20260505213537 8 97 8.0 22.5 0.00 0.00 0.00 79 1016.0
20260505213049 8 86 12.9 22.5 0.00 0.00 0.00 79 1015.9
20260505212537 8 94 12.9 22.5 0.00 0.00 0.00 79 1016.0
20260505212038 8 67 9.7 22.5 0.00 0.00 0.00 78 1016.0
20260505211605 8 79 11.3 24.1 0.00 0.00 0.00 79 1016.0
20260505211043 9 86 12.9 24.1 0.00 0.00 0.00 79 1015.9
20260505210537 9 72 14.5 24.1 0.00 0.00 0.00 79 1015.9
20260505210046 9 96 12.9 20.9 0.00 0.00 0.00 79 1015.9
20260505205538 9 69 9.7 20.9 0.00 0.00 0.00 79 1015.9
20260505205038 9 82 4.8 16.1 0.00 0.00 0.00 78 1015.9
20260505204553 9 77 6.4 19.3 0.00 0.00 0.00 78 1015.9
20260505204037 9 44 9.7 20.9 0.00 0.00 0.00 78 1015.9
20260505203539 9 98 11.3 20.9 0.00 0.00 0.00 78 1015.9
20260505203049 9 82 11.3 17.7 0.00 0.00 0.00 78 1015.9
20260505202541 9 56 11.3 19.3 0.00 0.00 0.00 78 1015.9
20260505202040 10 53 9.7 19.3 0.00 0.00 0.00 78 1015.8
20260505201557 10 89 8.0 19.3 0.00 0.00 0.00 77 1015.9
20260505201038 10 83 11.3 19.3 0.00 0.00 0.00 77 1015.7
20260505200537 10 93 4.8 14.5 0.00 0.00 0.00 77 1015.7
20260505200050 10 58 6.4 14.5 0.00 0.00 0.00 76 1015.6
20260505195537 10 71 3.2 19.3 0.00 0.00 0.00 75 1015.6
20260505195037 10 68 8.0 19.3 0.00 0.00 0.00 74 1015.5
20260505194609 10 51 6.4 16.1 0.00 0.00 0.00 72 1015.6
20260505194037 10 5 3.2 16.1 0.00 0.00 0.00 72 1015.4
20260505193538 10 350 4.8 16.1 0.00 0.00 0.00 72 1015.3
20260505193055 10 340 6.4 16.1 0.00 0.00 0.00 71 1015.3
20260505192538 10 16 4.8 16.1 0.00 0.00 0.00 71 1015.1
20260505192037 11 36 4.8 14.5 0.00 0.00 0.00 70 1015.1
20260505191553 11 360 1.6 12.9 0.00 0.00 0.00 69 1015.2
20260505191037 11 349 3.2 14.5 0.00 0.00 0.00 68 1015.2
20260505190537 11 360 6.4 14.5 0.00 0.00 0.00 67 1015.1
20260505190049 11 5 3.2 14.5 0.00 0.00 0.00 67 1015.1
20260505185537 11 333 3.2 16.1 0.00 0.00 0.00 67 1015.0
20260505185038 11 340 6.4 17.7 0.00 0.00 0.00 66 1015.0
20260505184554 11 28 6.4 19.3 0.00 0.00 0.00 67 1015.0
20260505184038 11 22 8.0 19.3 0.00 0.00 0.00 67 1015.0
20260505183537 11 20 8.0 16.1 0.00 0.00 0.00 67 1014.9
20260505183046 11 0 6.4 16.1 0.00 0.00 0.00 68 1014.9
20260505182537 11 341 1.6 16.1 0.00 0.00 0.00 67 1014.8
20260505182040 11 0 6.4 20.9 0.00 0.00 0.00 67 1014.8
20260505181555 11 352 4.8 20.9 0.00 0.00 0.00 66 1014.9
20260505181037 11 327 1.6 19.3 0.00 0.00 0.00 67 1014.9
20260505180540 11 14 4.8 19.3 0.00 0.00 0.00 67 1014.9
20260505180046 11 25 8.0 19.3 0.00 0.00 0.00 67 1014.9
20260505175538 11 5 6.4 22.5 0.00 0.00 0.00 66 1014.8
20260505175038 11 355 6.4 22.5 0.00 0.00 0.00 66 1014.7
20260505174555 12 13 6.4 17.7 0.00 0.00 0.00 67 1014.8
20260505174038 12 45 6.4 17.7 0.00 0.00 0.00 68 1014.9
20260505173537 12 343 4.8 20.9 0.00 0.00 0.00 68 1014.9
20260505173051 12 323 11.3 20.9 0.00 0.00 0.00 68 1014.9
20260505172537 12 301 6.4 22.5 0.00 0.00 0.00 66 1015.0
20260505172037 12 0 6.4 22.5 0.00 0.00 0.00 64 1015.0
20260505171548 12 296 9.7 20.9 0.00 0.00 0.00 65 1014.9
20260505171040 12 317 4.8 17.7 0.00 0.00 0.00 65 1015.0
20260505170536 12 329 6.4 17.7 0.00 0.00 0.00 64 1015.0
20260505170048 12 340 6.4 20.9 0.00 0.00 0.00 65 1014.9
20260505165536 12 355 3.2 20.9 0.00 0.00 0.00 64 1014.9
20260505165036 13 339 8.0 20.9 0.00 0.00 0.00 64 1014.9
20260505164613 13 350 4.8 17.7 0.00 0.00 0.00 64 1014.8
20260505164036 13 299 3.2 14.5 0.00 0.00 0.00 65 1014.7
20260505163538 13 318 4.8 19.3 0.00 0.00 0.00 65 1014.7
20260505163053 13 331 8.0 20.9 0.00 0.00 0.00 64 1014.8
20260505162536 13 360 6.4 20.9 0.00 0.00 0.00 65 1014.9
20260505162037 13 11 8.0 20.9 0.00 0.00 0.00 66 1014.8
20260505161550 13 315 8.0 19.3 0.00 0.00 0.00 66 1014.7
20260505161037 12 322 8.0 19.3 0.00 0.00 0.00 66 1014.7
20260505160537 12 336 6.4 22.5 0.00 0.00 0.00 66 1014.8
20260505153126 13 296 12.9 25.7 0.00 0.00 0.00 68 1015.1
20260505152536 13 333 9.7 22.5 0.00 0.00 0.00 67 1014.9
20260505152036 13 281 9.7 20.9 0.00 0.00 0.00 65 1015.0
20260505151549 13 311 8.0 20.9 0.00 0.00 0.00 65 1014.9
20260505151037 13 322 4.8 19.3 0.00 0.00 0.00 64 1014.9
20260505150537 13 304 6.4 24.1 0.00 0.00 0.00 66 1014.9
20260505140536 13 327 9.7 22.5 0.00 0.00 0.00 63 1015.1
20260505130110 14 265 9.7 24.1 0.00 0.00 0.00 61 1015.2
20260505125038 16 290 8.0 22.5 0.00 0.00 0.00 57 1015.2
20260505124600 16 355 11.3 22.5 0.00 0.00 0.00 58 1015.2
20260505124038 15 355 4.8 14.5 0.00 0.00 0.00 59 1015.1
20260505123535 15 321 6.4 17.7 0.00 0.00 0.00 61 1015.1
20260505123048 14 329 4.8 20.9 0.00 0.00 0.00 66 1015.2
20260505122539 13 321 11.3 20.9 0.00 0.00 0.00 62 1015.2
20260505122037 14 20 9.7 20.9 0.00 0.00 0.00 62 1015.2
20260505121551 14 360 4.8 20.9 0.00 0.00 0.00 61 1015.2
20260505121038 13 335 8.0 20.9 0.00 0.00 0.00 59 1015.3
20260505120537 13 322 6.4 20.9 0.00 0.00 0.00 61 1015.3
20260505120105 13 287 9.7 24.1 0.00 0.00 0.00 61 1015.2
20260505115537 13 319 4.8 24.1 0.00 0.00 0.00 61 1015.2
20260505115041 13 318 8.0 22.5 0.00 0.00 0.00 61 1015.2
20260505114549 13 321 8.0 22.5 0.00 0.00 0.00 60 1015.4
20260505114038 13 352 9.7 22.5 0.00 0.00 0.00 60 1015.3
20260505113540 14 297 9.7 22.5 0.00 0.00 0.00 58 1015.3
20260505113052 15 9 6.4 22.5 0.00 0.00 0.00 58 1015.3
20260505112540 16 323 6.4 14.5 0.00 0.00 0.00 57 1015.3
20260505112037 14 351 6.4 14.5 0.00 0.00 0.00 59 1015.4
20260505111547 13 5 1.6 16.1 0.00 0.00 0.00 57 1015.3
20260505111035 14 360 3.2 16.1 0.00 0.00 0.00 63 1015.4
20260505110537 12 51 6.4 19.3 0.00 0.00 0.00 64 1015.5
20260505102037 13 360 6.4 22.5 0.00 0.00 0.00 62 1015.6
20260505101547 13 318 9.7 20.9 0.00 0.00 0.00 64 1015.6
20260505101037 13 311 8.0 19.3 0.00 0.00 0.00 64 1015.7
20260505100537 13 344 9.7 19.3 0.00 0.00 0.00 64 1015.7
20260505100048 13 352 3.2 16.1 0.00 0.00 0.00 65 1015.7
20260505095537 13 329 6.4 16.1 0.00 0.00 0.00 61 1015.7
20260505095038 13 10 3.2 17.7 0.00 0.00 0.00 65 1015.7
20260505094546 12 40 6.4 24.1 0.00 0.00 0.00 68 1015.7
20260505094038 12 349 8.0 24.1 0.00 0.00 0.00 65 1015.7
20260505093538 12 5 9.7 17.7 0.00 0.00 0.00 67 1015.8
20260505093050 12 355 6.4 14.5 0.00 0.00 0.00 66 1015.8
20260505092539 12 5 3.2 16.1 0.00 0.00 0.00 69 1015.8
20260505092038 12 355 4.8 20.9 0.00 0.00 0.00 68 1015.8
20260505091550 12 345 6.4 20.9 0.00 0.00 0.00 67 1015.9
20260505091040 12 329 6.4 20.9 0.00 0.00 0.00 68 1015.8
20260505090537 12 355 8.0 17.7 0.00 0.00 0.00 66 1015.9
20260505090044 12 307 8.0 22.5 0.00 0.00 0.00 64 1015.9
20260505085538 13 342 8.0 22.5 0.00 0.00 0.00 63 1015.9
20260505085040 14 339 9.7 22.5 0.00 0.00 0.00 62 1015.9
20260505084548 15 296 12.9 22.5 0.00 0.00 0.00 63 1015.9
20260505084038 16 0 9.7 22.5 0.00 0.00 0.00 63 1015.9
20260505083540 16 338 4.8 24.1 0.00 0.00 0.00 68 1015.8
20260505083049 15 352 8.0 24.1 0.00 0.00 0.00 65 1015.9
20260505082538 14 360 9.7 22.5 0.00 0.00 0.00 63 1015.9
20260505082037 14 5 4.8 20.9 0.00 0.00 0.00 66 1015.9
20260505081552 14 350 8.0 20.9 0.00 0.00 0.00 67 1016.0
20260505081037 14 5 8.0 25.7 0.00 0.00 0.00 69 1016.0
20260505080538 14 311 11.3 25.7 0.00 0.00 0.00 69 1016.1
20260505080047 13 355 9.7 25.7 0.00 0.00 0.00 70 1015.9
20260505075540 13 360 11.3 22.5 0.00 0.00 0.00 71 1015.9
20260505075038 13 342 11.3 22.5 0.00 0.00 0.00 68 1016.1
20260505074543 13 286 9.7 22.5 0.00 0.00 0.00 69 1016.0
20260505074037 13 267 8.0 20.9 0.00 0.00 0.00 72 1016.0
20260505073538 13 302 6.4 20.9 0.00 0.00 0.00 71 1016.0
20260505073050 13 355 9.7 20.9 0.00 0.00 0.00 74 1016.0
20260505072538 12 17 9.7 20.9 0.00 0.00 0.00 75 1015.8
20260505072041 12 329 6.4 19.3 0.00 0.00 0.00 77 1016.0
20260505071552 12 342 9.7 19.3 0.00 0.00 0.00 78 1016.1
20260505071037 11 342 6.4 14.5 0.00 0.00 0.00 80 1016.1
20260505070540 11 345 3.2 11.3 0.00 0.00 0.00 81 1016.1
20260505070046 11 348 1.6 11.3 0.00 0.00 0.00 80 1016.0
20260505065538 11 5 3.2 14.5 0.00 0.00 0.00 79 1015.9
20260505065037 11 337 1.6 14.5 0.00 0.00 0.00 78 1016.0
20260505064549 11 315 4.8 14.5 0.00 0.00 0.00 79 1016.1
20260505064037 12 288 1.6 12.9 0.00 0.00 0.00 81 1016.1
20260505063538 12 315 4.8 12.9 0.00 0.00 0.00 82 1016.1
20260505063045 11 311 6.4 14.5 0.00 0.00 0.00 83 1016.0
20260505062538 11 327 6.4 14.5 0.00 0.00 0.00 83 1015.9
20260505062038 11 301 4.8 14.5 0.00 0.00 0.00 84 1015.9
20260505061552 11 292 4.8 14.5 0.00 0.00 0.00 85 1015.8
20260505061037 10 323 6.4 14.5 0.00 0.00 0.00 86 1015.7
20260505060541 10 282 4.8 12.9 0.00 0.00 0.00 88 1015.8
20260505060053 10 296 3.2 11.3 0.00 0.00 0.00 90 1015.8
20260505055539 9 309 4.8 12.9 0.00 0.00 0.00 91 1015.8
20260505055037 8 307 4.8 12.9 0.00 0.00 0.00 91 1015.8
20260505054556 8 344 4.8 12.9 0.00 0.00 0.00 92 1015.8
20260505054037 8 293 6.4 12.9 0.00 0.00 0.00 92 1016.0
20260505053534 8 311 4.8 11.3 0.00 0.00 0.00 93 1016.0
20260505053056 7 313 3.2 11.3 0.00 0.00 0.00 93 1016.1
20260505052538 7 313 3.2 12.9 0.00 0.00 0.00 93 1015.9
20260505052038 7 306 4.8 12.9 0.00 0.00 0.00 93 1015.9
20260505051546 6 311 4.8 11.3 0.00 0.00 0.00 93 1015.9
20260505051039 6 299 4.8 11.3 0.00 0.00 0.00 93 1016.0
20260505050537 6 287 4.8 11.3 0.00 0.00 0.00 92 1016.0
20260505041552 5 329 3.2 16.1 0.00 0.00 0.00 91 1015.9
20260505041038 5 290 6.4 16.1 0.00 0.00 0.00 91 1015.8
20260505040541 5 286 9.7 14.5 0.00 0.00 0.00 91 1015.8
20260505040054 5 293 8.0 14.5 0.00 0.00 0.00 91 1015.8
20260505035538 5 275 8.0 14.5 0.00 0.00 0.00 91 1015.7
20260505035037 5 289 6.4 12.9 0.00 0.00 0.00 91 1015.7
20260505034546 5 314 4.8 12.9 0.00 0.00 0.00 90 1015.8
20260505034037 5 295 3.2 11.3 0.00 0.00 0.00 90 1015.7
20260505033537 5 294 4.8 14.5 0.00 0.00 0.00 90 1015.7
20260505033048 5 266 6.4 14.5 0.00 0.00 0.00 90 1015.8
20260505032537 5 288 8.0 14.5 0.00 0.00 0.00 90 1015.7